Location: Proctor
(47.8934°N, 114.3048°W)
Time: 11:49:00
(UTC+00:00)

Transit 2A Rocket - All Passes

Search period start: 25 June 2024 00:00
Search period end: 05 July 2024 00:00
Orbit: 583 x 910 km, 66.7° (Epoch: 25 June)

Date Brightness Start Highest point End Pass type
(mag) Time Alt. Az. Time Alt. Az. Time Alt. Az.
25 Jun - 02:15:41 10° SSE 02:19:46 25° ESE 02:24:11 10° NE daylight
25 Jun - 03:56:38 10° SW 04:01:48 62° NW 04:07:29 10° NNE daylight
25 Jun - 05:41:39 10° WNW 05:45:34 19° NNW 05:49:39 10° NNE visible
25 Jun - 07:28:23 10° NNW 07:30:31 12° N 07:32:42 10° NNE visible
25 Jun - 09:11:35 10° NNW 09:15:34 18° NNE 09:19:37 10° ENE visible
25 Jun - 10:53:39 10° NNW 10:59:32 50° NE 11:05:26 10° ESE visible
25 Jun - 12:36:27 10° NW 12:42:00 38° WSW 12:47:30 10° S daylight
26 Jun - 01:33:26 10° SE 01:36:08 14° ESE 01:38:58 10° ENE daylight
26 Jun - 03:12:29 10° SSW 03:17:40 85° ESE 03:23:23 10° NE daylight
26 Jun - 04:56:31 10° W 05:00:57 25° NW 05:05:43 10° NNE visible
26 Jun - 06:43:14 10° NNW 06:45:40 13° N 06:48:09 10° NNE visible
26 Jun - 08:27:34 10° NNW 08:30:50 15° NNE 08:34:09 10° NE visible
26 Jun - 10:09:40 10° NNW 10:15:11 35° NE 10:20:43 10° ESE visible
26 Jun - 11:52:07 10° NW 11:58:05 60° WSW 12:04:01 10° SSE daylight
26 Jun - 13:37:59 10° W 13:39:28 11° W 13:40:55 10° WSW daylight
27 Jun - 02:28:42 10° SSW 02:33:41 52° ESE 02:39:10 10° NE daylight
27 Jun - 04:11:36 10° WSW 04:16:28 34° NW 04:21:44 10° NNE visible
27 Jun - 05:57:50 10° NW 06:00:51 14° NNW 06:03:57 10° NNE visible
27 Jun - 07:43:24 10° NNW 07:46:01 13° N 07:48:40 10° NE visible
27 Jun - 09:25:43 10° NNW 09:30:42 26° NE 09:35:44 10° E visible
27 Jun - 11:07:56 10° NW 11:14:03 89° NE 11:20:07 10° SSE daylight
27 Jun - 12:51:45 10° WNW 12:55:52 19° WSW 12:59:55 10° SSW daylight
28 Jun - 01:45:20 10° S 01:49:51 31° ESE 01:54:45 10° NE daylight
28 Jun - 03:26:59 10° WSW 03:32:07 51° NW 03:37:45 10° NNE daylight
28 Jun - 05:12:26 10° WNW 05:16:05 17° NNW 05:19:55 10° NNE visible
28 Jun - 06:58:55 10° NNW 07:01:09 12° N 07:03:24 10° NNE visible
28 Jun - 08:41:46 10° NNW 08:46:06 20° NNE 08:50:30 10° ENE visible
28 Jun - 10:23:52 10° NNW 10:29:53 60° NE 10:35:52 10° SE visible
28 Jun - 12:06:55 10° NW 12:12:08 31° WSW 12:17:18 10° S daylight
29 Jun - 01:02:36 10° SSE 01:06:09 19° ESE 01:09:54 10° ENE daylight
29 Jun - 02:42:41 10° SW 02:47:54 78° NW 02:53:41 10° NNE daylight
29 Jun - 04:27:11 10° W 04:31:25 22° NNW 04:35:56 10° NNE visible
29 Jun - 06:13:58 10° NNW 06:16:16 12° N 06:18:37 10° NNE visible
29 Jun - 07:57:47 10° NNW 08:01:24 16° NNE 08:05:05 10° ENE visible
29 Jun - 09:39:52 10° NNW 09:45:35 41° NE 09:51:18 10° ESE visible
29 Jun - 11:22:27 10° NW 11:28:17 49° WSW 11:34:02 10° S daylight
30 Jun - 00:21:43 10° ESE 00:22:35 10° E 00:23:28 10° E daylight
30 Jun - 01:58:42 10° SSW 02:03:51 67° ESE 02:09:31 10° NE daylight
30 Jun - 03:42:09 10° W 03:46:53 30° NW 03:51:58 10° NNE daylight
30 Jun - 05:28:39 10° NW 05:31:25 13° NNW 05:34:16 10° NNE visible
30 Jun - 07:13:41 10° NNW 07:16:36 14° NNE 07:19:34 10° NE visible
30 Jun - 08:55:54 10° NNW 09:01:09 30° NE 09:06:27 10° E visible
30 Jun - 10:38:13 10° NW 10:44:19 76° WSW 10:50:19 10° SSE visible
30 Jun - 12:22:40 10° WNW 12:25:54 15° WSW 12:29:06 10° SW daylight
01 Jul - 01:15:07 10° S 01:19:56 40° ESE 01:25:12 10° NE daylight
01 Jul - 02:57:24 10° WSW 03:02:28 42° NW 03:07:59 10° NNE daylight
01 Jul - 04:43:14 10° WNW 04:46:38 16° NNW 04:50:09 10° NNE visible
01 Jul - 06:29:21 10° NNW 06:31:45 12° N 06:34:11 10° NNE visible
01 Jul - 08:11:56 10° NNW 08:16:36 23° NNE 08:21:19 10° E visible
01 Jul - 09:54:06 10° NNW 10:00:11 72° NE 10:06:14 10° SE visible
01 Jul - 11:37:27 10° NW 11:42:13 25° WSW 11:46:57 10° SSW daylight
02 Jul - 00:32:03 10° SSE 00:36:11 24° ESE 00:40:36 10° NE daylight
02 Jul - 02:12:56 10° SW 02:18:10 64° NW 02:23:57 10° NNE daylight
02 Jul - 03:57:53 10° WNW 04:01:55 20° NNW 04:06:09 10° NNE daylight
02 Jul - 05:44:37 10° NNW 05:46:53 12° N 05:49:10 10° NNE visible
02 Jul - 07:27:58 10° NNW 07:31:56 18° NNE 07:35:58 10° ENE visible
02 Jul - 09:10:03 10° NNW 09:15:57 49° NE 09:21:48 10° ESE visible
02 Jul - 10:52:51 10° NW 10:58:26 39° WSW 11:03:57 10° S visible
02 Jul - 23:49:52 10° SE 23:52:33 14° ESE 23:55:20 10° ENE daylight
03 Jul - 01:28:47 10° SSW 01:34:02 83° ESE 01:39:50 10° NE daylight
03 Jul - 03:12:44 10° W 03:17:19 26° NW 03:22:10 10° NNE daylight
03 Jul - 04:59:25 10° NW 05:02:00 13° N 05:04:37 10° NNE visible
03 Jul - 06:43:55 10° NNW 06:47:11 15° NNE 06:50:29 10° NE visible
03 Jul - 08:26:04 10° NNW 08:31:34 35° NE 08:37:04 10° ESE visible
03 Jul - 10:08:30 10° NW 10:14:31 62° WSW 10:20:25 10° SSE visible
03 Jul - 11:54:08 10° W 11:55:53 11° W 11:57:39 10° WSW daylight
04 Jul - 00:45:01 10° S 00:50:03 51° ESE 00:55:36 10° NE daylight
04 Jul - 02:27:51 10° WSW 02:32:49 36° NW 02:38:12 10° NNE daylight
04 Jul - 04:14:02 10° NW 04:17:10 15° NNW 04:20:25 10° NNE visible
04 Jul - 05:59:42 10° NNW 06:02:21 13° N 06:05:01 10° NE visible
04 Jul - 07:42:06 10° NNW 07:47:04 26° NE 07:52:04 10° E visible
04 Jul - 09:24:19 10° NW 09:30:28 87° NE 09:36:30 10° SE visible
04 Jul - 11:08:05 10° WNW 11:12:17 20° WSW 11:16:26 10° SSW daylight
